Mount Shasta, CA

3:44 PM PST on February 05, 2016 (GMT -0800)
Mount Shasta

Weather History for KMHS - November, 2012

Change the Weather History Date:

Friday, November 30, 2012

  Actual Average Record
Temperature  
Mean Temperature 47 °F 37 °F  
Max Temperature 52 °F 46 °F 62 °F (1912)
Min Temperature 42 °F 27 °F 15 °F (1988)
Degree Days  
Heating Degree Days 18 28  
Month to date heating degree days 636 733  
Since 1 July heating degree days 1030 1397  
Cooling Degree Days 0 0  
Month to date cooling degree days 0 0  
Year to date cooling degree days 392 288  
Moisture  
Dew Point 41 °F    
Average Humidity 82    
Maximum Humidity 93    
Minimum Humidity 66    
Precipitation  
Precipitation 0.70 in 0.21 in 3.88 in (1973)
Month to date precipitation 9.16 5.08  
Year to date precipitation 34.83 35.36  
Sea Level Pressure  
Sea Level Pressure 29.72 in    
Wind  
Wind Speed 2 mph (ESE)    
Max Wind Speed 12 mph    
Max Gust Speed 21 mph    
Visibility 8 miles    
Events Rain    
T = Trace of Precipitation, MM = Missing Value Source: NWS Daily Summary

Daily Weather History Graph

Daily Weather History Graph

Search for Another Location

Airport or City:

Trip Planner

Search our weather history database for the weather conditions in past years. The results will help you decide how hot, cold, wet, or windy it might be!

Date:

Astronomy

Nov. 30, 2012 Rise Set
Actual Time 7:15 AM PST 4:40 PM PST
Civil Twilight 6:44 AM PST 5:11 PM PST
Nautical Twilight 6:10 AM PST 5:45 PM PST
Astronomical Twilight 5:36 AM PST 6:19 PM PST
Moon 6:40 PM PST (11/30) 8:51 AM PST (11/30)
Length of Visible Light 10h 27m
Length of Day
9h 25m
Waning Gibbous, 96% of the Moon is Illuminated
Nov 30
Waning Gibbous
Dec 6
Last Quarter
Dec 13
New
Dec 19
First Quarter
Dec 28
Full

Hourly Weather History & Observations

Time (PST) Temp. Windchill Dew Point Humidity Pressure Visibility Wind Dir Wind Speed Gust Speed Precip Events Conditions
12:56 AM 48.0 °F - 44.1 °F 86% 29.62 in 8.0 mi Variable 5.8 mph - 0.08 in Rain Light Rain
1:14 AM 48.2 °F - 44.6 °F 87% 29.59 in 3.0 mi Variable 3.5 mph - 0.03 in Rain Rain
1:35 AM 48.2 °F - 44.6 °F 87% 29.59 in 6.0 mi Calm Calm - 0.08 in Rain Light Rain
1:56 AM 48.0 °F - 45.0 °F 89% 29.62 in 5.0 mi Calm Calm - 0.13 in Rain Rain
2:20 AM 48.2 °F - 44.6 °F 87% 29.59 in 2.5 mi Variable 4.6 mph - 0.08 in Rain Rain
2:27 AM 48.2 °F - 44.6 °F 87% 29.59 in 5.0 mi SE 4.6 mph - 0.09 in Rain Light Rain
2:36 AM 48.2 °F - 44.6 °F 87% 29.61 in 5.0 mi Calm Calm - 0.11 in Rain Light Rain
2:56 AM 48.9 °F - 45.0 °F 86% 29.62 in 5.0 mi ESE 5.8 mph - 0.14 in Rain Rain
3:56 AM 48.0 °F - 45.0 °F 89% 29.64 in 6.0 mi Variable 3.5 mph - 0.07 in Rain Light Rain
4:56 AM 45.0 °F - 41.0 °F 86% 29.65 in 10.0 mi Calm Calm - 0.02 in   Clear
5:56 AM 46.0 °F - 42.1 °F 86% 29.67 in 9.0 mi Calm Calm - 0.01 in Rain Light Rain
6:33 AM 42.8 °F 41.1 °F 39.2 °F 87% 29.68 in 2.5 mi WSW 3.5 mph - 0.06 in Rain Heavy Rain
6:56 AM 43.0 °F - 37.9 °F 82% 29.71 in 6.0 mi Calm Calm - 0.15 in Rain Light Rain
7:56 AM 43.0 °F - 39.9 °F 89% 29.72 in 10.0 mi Calm Calm - 0.02 in Rain Light Rain
8:32 AM 42.8 °F - 39.2 °F 87% 29.68 in 4.0 mi Calm Calm - 0.01 in Rain Light Rain
8:56 AM 46.0 °F 44.8 °F 42.1 °F 86% 29.72 in 9.0 mi East 3.5 mph - 0.01 in Rain Light Rain
9:56 AM 46.9 °F - 42.1 °F 83% 29.73 in 10.0 mi ESE 4.6 mph - 0.01 in   Overcast
10:56 AM 48.0 °F - 42.1 °F 80% 29.75 in 10.0 mi East 3.5 mph - 0.01 in Rain Light Rain
11:56 AM 50.0 °F - 41.0 °F 71% 29.73 in 10.0 mi Calm Calm - 0.00 in   Mostly Cloudy
12:56 PM 52.0 °F - 41.0 °F 66% 29.73 in 10.0 mi ESE 5.8 mph - N/A   Mostly Cloudy
1:56 PM 50.0 °F - 39.9 °F 68% 29.75 in 10.0 mi ESE 4.6 mph - N/A   Mostly Cloudy
2:56 PM 48.9 °F - 37.9 °F 66% 29.76 in 10.0 mi Variable 3.5 mph - N/A   Overcast
3:56 PM 46.9 °F - 39.9 °F 77% 29.78 in 10.0 mi East 8.1 mph - 0.00 in Rain Light Rain
4:56 PM 46.9 °F - 39.9 °F 77% 29.79 in 10.0 mi Calm Calm - 0.00 in Rain Light Rain
5:56 PM 46.0 °F 44.8 °F 39.9 °F 79% 29.79 in 10.0 mi ESE 3.5 mph - 0.00 in   Mostly Cloudy
6:56 PM 45.0 °F - 39.9 °F 82% 29.80 in 10.0 mi Calm Calm - N/A   Overcast
7:56 PM 44.1 °F - 37.9 °F 79% 29.81 in 10.0 mi Calm Calm - N/A   Partly Cloudy
8:56 PM 45.0 °F - 39.0 °F 80% 29.82 in 8.0 mi Calm Calm - 0.00 in Rain Light Rain
9:36 PM 44.6 °F - 39.2 °F 81% 29.80 in 6.0 mi Calm Calm - 0.03 in Rain Light Rain
9:46 PM 44.6 °F - 39.2 °F 81% 29.80 in 6.0 mi Calm Calm - 0.04 in Rain Light Rain
9:56 PM 44.1 °F 42.5 °F 39.0 °F 82% 29.83 in 10.0 mi Variable 3.5 mph - 0.04 in Rain Light Rain
10:56 PM 43.0 °F - 37.9 °F 82% 29.83 in 10.0 mi Calm Calm - 0.01 in   Mostly Cloudy
11:56 PM 45.0 °F 43.5 °F 39.9 °F 82% 29.80 in 10.0 mi Variable 3.5 mph - 0.01 in Rain Light Rain